Regional Weather Roundup
Issued by NWS Nashville, TN

Home | Current Version | Previous Version | Text Only | Print | Product List | Glossary On
Versions: 1 2 3 4 5 6 7 8 9 10 11 12 13 14 15 16 17 18 19 20 21 22 23 24 25 26 27
000
ASUS44 KOHX 301310
RWROHX
MIDDLE TENNESSEE HOURLY WEATHER ROUNDUP
NATIONAL WEATHER SERVICE NASHVILLE TN
800 AM CDT THU MAR 30 2017

NOTE: "FAIR" INDICATES FEW OR NO CLOUDS BELOW 12,000 FEET WITH
NO SIGNIFICANT WEATHER AND/OR OBSTRUCTIONS TO VISIBILITY.

* THESE REPORTS ARE NOT UNDER NWS QUALITY CONTROL AND MAY NOT
  REPORT WEATHER SUCH AS PRECIPITATION AND FOG.


TNZ005>011-023>034-057-059-062>066-078-080-301400
...NORTHERN MIDDLE TENNESSEE...

CITY           SKY/WX    TMP DP  RH WIND       PRES   REMARKS
CLARKSVILLE    CLOUDY    68  57  68 S12G18    29.73F
CROSSVILLE     CLOUDY    64  54  69 S7        29.95R
GALLATIN       SUNNY     68  59  73 S16G23    29.84F
NASHVILLE      CLOUDY    68  58  70 S17       29.80F
PORTLAND       MOSUNNY   68  57  68 S14G21    29.79F
SMYRNA         CLOUDY    68  59  73 S15       29.82F
SPARTA         SUNNY     66  55  68 S6        29.89R
SPRINGFIELD    SUNNY     68  57  68 SE12      29.73F
WEST NASHVILLE SUNNY     66  57  72 SE14        N/A
$$
TNZ056-058-060-061-075>077-079-093>097-301400
...SOUTHERN MIDDLE TENNESSEE...

CITY           SKY/WX    TMP DP  RH WIND       PRES   REMARKS
COLUMBIA       SUNNY     66  66 100 S12       29.79F
FAYETTEVILLE   CLOUDY    66  61  82 S10G17    29.89S
SHELBYVILLE    MOSUNNY   68  61  77 S13       29.87F
TULLAHOMA      PTSUNNY   64  55  72 S9        29.91F
$$


...KEY TO REMARKS...
VSB - VISIBILITY IN MILES
WCI - WIND CHILL INDEX
HX  - HEAT INDEX





USA.gov is the U.S. government's official web portal to all federal, state and local government web resources and services.